Location: Casilda
(33.0440°S, 61.1680°W)
Time: 08:54:00
(UTC-03:00)

ISS - Pass Details

Date: 21 September 2021
Orbit: 417 x 422 km, 51.6° (Epoch: 28 September)

Event Time Altitude Azimuth Distance (km) Brightness Sun altitude
Exits shadow 06:30:05 - 303° (WNW) 1,948 -0.9 -6.1°
Reaches altitude 10° 06:31:09 10° 299° (WNW) 1,522 -1.5 -5.9°
Maximum altitude 06:34:30 52° 222° (SW) 543 -3.4 -5.2°
Drops below altitude 10° 06:37:53 10° 144° (SE) 1,536 -0.3 -4.4°
Sets 06:40:03 0° 138° (SE) 2,407 0.8 -4.0°
